User: anonymous   Login
Location: Unspecified
(0.0000°N, 0.0000°E)
Time: 09:58:17
(UTC+00:00)
Language:

EQUISAT - Orbit

View from above orbital plane
View from above orbital plane
View from above satellite
View from above satellite

Ground track
Ground track

The orbit data is extracted from the following two-line orbital elements,

1 43552U 98067PA  19111.86035310  .00012166  00000-0  15163-3 0  9993
2 43552  51.6388 273.3447 0006086 285.9031  74.1292 15.60335446 43986
Epoch (UTC): 21 April 2019 20:38:54
Eccentricity: 0.0006086
inclination: 51.6388°
perigee height: 382 km
apogee height: 391 km
right ascension of ascending node: 273.3447°
argument of perigee: 285.9031°
revolutions per day: 15.60335446
mean anomaly at epoch: 74.1292°
orbit number at epoch: 4398

The dashed part of the orbit path shows where the satellite is in the earth's shadow,  

DLR